Regional Weather Roundup
Issued by NWS Sterling, VA

Home | Current Version | Previous Version | Text Only | Print | Product List | Glossary Off
Versions: 1 2 3 4 5 6 7 8 9 10 11 12 13 14 15 16 17 18 19 20 21 22 23 24 25 26 27

000
ASUS41 KLWX 200410
RWRLWX

REGIONAL WEATHER ROUNDUP
NATIONAL WEATHER SERVICE BALTIMORE MD/WASHINGTON DC
1100 PM EST SUN NOV 19 2017

Note: "FAIR" indicates few or no clouds below 12,000 feet
with no significant weather and/or obstructions to visibility.
 TC=TEMPERATURE CELSIUS

 * =Non NWS site. Station does not report precipitation (e.g. rain,
    snow, etc.), thunder, or fog.

DCZ001-MDZ009-015-VAZ040>042-051-053>054-200500-
WASHINGTON METRO

CITY           SKY/WX    TMP DP  RH WIND       PRES   REMARKS
WASHINGTON NAT MOCLDY    45  27  49 W15G23    29.97R
DULLES         MOCLDY    42  28  57 W15G25    29.96R
ANDREWS AFB    CLOUDY    43  24  47 W15G25    29.94R
FT BELVOIR     CLOUDY    44  28  53 NW8       29.97R
COLLEGE PARK*  CLOUDY    42  28  56 W5        29.95R
LEESBURG*      CLOUDY    43  32  65 NW8       29.97R
MANASSAS*      CLOUDY    44  27  51 NW8       29.97R
GAITHERSBURG*  CLOUDY    40  28  62 W15G23    29.94R

$$

MDZ006>007-011-014-200500-
BALTIMORE METRO

CITY           SKY/WX    TMP DP  RH WIND       PRES   REMARKS
BWI AIRPORT    CLOUDY    42  29  59 W13       29.93R
MARTIN STATE   CLOUDY    43  30  61 W9        29.94R
FORT MEADE*    CLOUDY    43  28  56 W16       29.96R

$$

MDZ012-015-019>023-200500-
MARYLAND EASTERN SHORE

CITY           SKY/WX    TMP DP  RH WIND       PRES   REMARKS
OCEAN CITY     CLEAR     41  27  57 W6        29.94R
SALISBURY      PTCLDY    39  28  64 W6        29.94R
CAMBRIDGE*     MOCLDY    45  28  53 W9        29.95R
EASTON*        MOCLDY    46  28  50 NW13      29.97R

$$

MDZ017>025-200500-
SOUTHERN MARYLAND

CITY           SKY/WX    TMP DP  RH WIND       PRES   REMARKS
PATUXENT RIVER NOT AVBL
ST INIGOES     NOT AVBL
LEONARDTOWN*   CLOUDY    41  28  60 SW3       29.97R

$$

MDZ003>005-200500-
NORTH CENTRAL MARYLAND

CITY           SKY/WX    TMP DP  RH WIND       PRES   REMARKS
FREDERICK*     CLOUDY    41  27  56 W12G18    29.97R
HAGERSTOWN APT PTCLDY    37  28  70 NW14      29.93R WCI  28
WESTMINSTER*   PTCLDY    39  28  65 W13G20    29.90R

$$

MDZ501>502-200500-
WESTERN MARYLAND

CITY           SKY/WX    TMP DP  RH WIND       PRES   REMARKS
OAKLAND*       CLOUDY    27  23  86 W13G23    29.87S WCI  16
CUMBERLAND*    MOCLDY    36  28  75 W3        30.01R

$$

VAZ025>031-200500-
SHENANDOAH VALLEY

CITY           SKY/WX    TMP DP  RH WIND       PRES   REMARKS
WINCHESTER*    CLOUDY    37  23  56 W12G23    29.94S
FRONT ROYAL*   CLOUDY    41  27  56 MISG      29.94R
LURAY*         MOCLDY    41  23  48 SW3       29.96R
NEW MARKET*    MOCLDY    40  20  45 W7G16     29.96S
STAUNTON*      CLEAR     36  22  57 W5        29.98S
WAYNESBORO*    CLEAR     37  22  54 W7        29.96S

$$

WVZ021-048>050-054>055-200500-
EASTERN WEST VIRGINIA PANHANDLE

CITY           SKY/WX    TMP DP  RH WIND       PRES   REMARKS
MARTINSBURG    PTCLDY    39  25  57 NW21G31   29.94R WCI  29
PETERSBURG*    CLOUDY    38  20  50 W12G18    30.00R

$$

VAZ036>039-050-200500-
CENTRAL FOOTHILLS

CITY           SKY/WX    TMP DP  RH WIND       PRES   REMARKS
CHARLOTTESVILL CLEAR     44  23  43 VRB6      29.97R
CULPEPER*      CLOUDY    45  20  37 W8        29.98R
ORANGE*        PTCLDY    41  23  48 W7        29.97R
GORDONSVILLE*  PTCLDY    41  25  52 CALM      29.97R
WARRENTON*     NOT AVBL

$$

VAZ055>057-200500-
NORTH AND CENTRAL PIEDMONT

CITY           SKY/WX    TMP DP  RH WIND       PRES   REMARKS
FREDERICKSBRG* PTCLDY    44  26  50 W9        29.98R
STAFFORD*      MOCLDY    40  27  59 CALM      30.01R

$$

NCZ024-NYZ072-PAZ021-071-VAZ022-071-200500-
OTHER REGIONAL OBSERVATIONS

CITY           SKY/WX    TMP DP  RH WIND       PRES   REMARKS
NEW YORK CITY  CLOUDY    38  33  82 VRB5      29.80R
PHILADELPHIA   PTCLDY    41  24  51 W12       29.88R
PITTSBURGH     FLURRIES  33  22  63 W13       29.99R WCI  24
ROANOKE        PTCLDY    39  22  50 NW15G23   30.05R
RICHMOND       PTCLDY    43  26  51 SW7       30.00R
RALEIGH        CLEAR     38  25  59 CALM      30.07R

$$

ANZ530>537-200500-
MARINE OBSERVATIONS

STATION/POSITION TIME  TEMP    WIND        PRES
                       AIR SEA DIR/SP/G
                 (UTC) (F)     (DEG/KT/KT) (MB)
THOMAS PT LIGHT  0400   45 53  280/ 11/ 13   N/A
BALT KEY BRIDGE  0342   44     270/ 12/ 14 1013.3R
COVE POINT       0342   44     310/  6/ 10 1015.1R
LEWISETTA        0342   44 51  260/  8/ 10 1014.7R
SOLOMONS ISLAND  0342   45 54  290/  6/ 11 1014.2R
PINEY POINT      0342          300/ 11/ 12   N/A

$$





USA.gov is the U.S. government's official web portal to all federal, state and local government web resources and services.